TimeEST,TemperatureF,Dew PointF,Humidity,Sea Level PressureIn,VisibilityMPH,Wind Direction,Wind SpeedMPH,Gust SpeedMPH,PrecipitationIn,Events,Conditions,WindDirDegrees,DateUTC
12:53 AM,3.9,-9999,N/A,30.15,10.0,WNW,23.0,28.8,N/A,,Clear,290,2012-11-30 05:53:00
1:53 AM,3.9,-9999,N/A,30.18,10.0,WNW,19.6,26.5,N/A,,Clear,300,2012-11-30 06:53:00
2:53 AM,3.9,-9999,N/A,30.20,10.0,WNW,20.7,25.3,N/A,,Clear,290,2012-11-30 07:53:00
3:53 AM,3.0,-9999,N/A,30.22,10.0,WNW,17.3,25.3,N/A,,Clear,290,2012-11-30 08:53:00
4:53 AM,3.9,-9999,N/A,30.25,10.0,NW,10.4,20.7,N/A,,Clear,310,2012-11-30 09:53:00
5:53 AM,3.0,-9999,N/A,30.28,10.0,WNW,16.1,-,N/A,,Clear,300,2012-11-30 10:53:00
6:53 AM,3.9,-9999,N/A,30.30,10.0,WNW,13.8,-,N/A,,Clear,300,2012-11-30 11:53:00
7:53 AM,6.1,-9999,N/A,30.32,10.0,NW,18.4,26.5,N/A,,Clear,310,2012-11-30 12:53:00
8:53 AM,8.1,-9999,N/A,30.34,10.0,NW,17.3,32.2,N/A,,Clear,320,2012-11-30 13:53:00
9:53 AM,10.9,1.0,64,30.37,10.0,NW,16.1,31.1,N/A,,Clear,310,2012-11-30 14:53:00
10:53 AM,12.0,1.9,64,30.38,10.0,NW,18.4,26.5,N/A,,Clear,320,2012-11-30 15:53:00
11:53 AM,14.0,1.4,57,30.32,10.0,NW,15.0,26.5,N/A,,Clear,310,2012-11-30 16:53:00
12:53 PM,16.0,1.0,52,30.40,10.0,NW,15.0,25.3,N/A,,Clear,310,2012-11-30 17:53:00
1:53 PM,17.1,1.0,50,30.40,10.0,WNW,12.7,-,N/A,,Clear,300,2012-11-30 18:53:00
2:53 PM,16.0,1.9,54,30.43,10.0,WNW,13.8,19.6,N/A,,Clear,300,2012-11-30 19:53:00
3:53 PM,12.9,1.9,62,30.45,10.0,NW,8.1,-,N/A,,Clear,310,2012-11-30 20:53:00
4:53 PM,12.0,1.9,64,30.47,10.0,NW,10.4,-,N/A,,Clear,320,2012-11-30 21:53:00
5:53 PM,10.0,1.9,70,30.50,10.0,NW,10.4,-,N/A,,Clear,310,2012-11-30 22:53:00
6:53 PM,10.0,3.0,73,30.51,10.0,WNW,11.5,-,N/A,,Clear,290,2012-11-30 23:53:00
7:53 PM,10.0,3.9,76,30.53,10.0,NW,11.5,-,N/A,,Partly Cloudy,310,2012-12-01 00:53:00
8:53 PM,9.0,3.9,80,30.54,10.0,NW,8.1,-,N/A,,Clear,320,2012-12-01 01:53:00
9:53 PM,6.1,1.9,83,30.56,10.0,NNW,9.2,-,N/A,,Clear,340,2012-12-01 02:53:00
10:53 PM,6.1,1.9,83,30.57,10.0,NNW,15.0,-,N/A,,Clear,330,2012-12-01 03:53:00
11:53 PM,6.8,1.4,79,30.51,10.0,NW,15.0,-,N/A,,Clear,320,2012-12-01 04:53:00